Austin, TX

2:29 PM CDT on October 22, 2017 (GMT -0500)
Austin

Weather History for KATT - May, 2013

Change the Weather History Date:

Thursday, May 16, 2013

  Actual Average Record
Temperature  
Mean Temperature 82 °F 77 °F  
Max Temperature 94 °F 87 °F 99 °F (2003)
Min Temperature 70 °F 67 °F 46 °F (1926)
Degree Days  
Heating Degree Days 0 0  
Month to date heating degree days 12 0  
Since 1 July heating degree days 1251 1537  
Cooling Degree Days 17 12  
Month to date cooling degree days 105 159  
Year to date cooling degree days 377 411  
Growing Degree Days 32 (Base 50)    
Moisture  
Dew Point 69 °F    
Average Humidity 69    
Maximum Humidity 97    
Minimum Humidity 41    
Precipitation  
Precipitation 0.05 in 0.15 in 3.19 in (1965)
Month to date precipitation 1.50 2.10  
Year to date precipitation 9.15 11.19  
Snow  
Snow 0.00 in - - ()
Month to date snowfall 0.0  
Since 1 July snowfall T  
Snow Depth 0.00 in    
Sea Level Pressure  
Sea Level Pressure 29.80 in    
Wind  
Wind Speed 8 mph (SSE)    
Max Wind Speed 15 mph    
Max Gust Speed 24 mph    
Visibility 9 miles    
Events Rain    
T = Trace of Precipitation, MM = Missing Value Source: NWS Daily Summary

Daily Weather History Graph

Daily Weather History Graph

Search for Another Location

Airport or City:

Trip Planner

Search our weather history database for the weather conditions in past years. The results will help you decide how hot, cold, wet, or windy it might be!

Date:

Astronomy

May. 16, 2013 Rise Set
Actual Time 6:36 AM CDT 8:19 PM CDT
Civil Twilight 6:09 AM CDT 8:45 PM CDT
Nautical Twilight 5:38 AM CDT 9:17 PM CDT
Astronomical Twilight 5:04 AM CDT 9:50 PM CDT
Moon 12:03 PM CDT (5/16) 12:46 AM CDT (5/16)
Length of Visible Light 14h 35m
Length of Day
13h 42m
Waxing Crescent, 36% of the Moon is Illuminated
May 16
Waxing Crescent
May 17
First Quarter
May 24
Full
May 31
Last Quarter
Jun 8
New

Hourly Weather History & Observations

Time (CDT) Temp. Heat Index Dew Point Humidity Pressure Visibility Wind Dir Wind Speed Gust Speed Precip Events Conditions
12:13 AM 73.9 °F - 68.0 °F 82% 29.86 in 10.0 mi South 9.2 mph 21.9 mph N/A   Overcast
12:51 AM 73.9 °F - 68.0 °F 82% 29.83 in 10.0 mi South 11.5 mph 23.0 mph N/A   Overcast
1:38 AM 73.9 °F - 68.0 °F 82% 29.85 in 10.0 mi Variable 5.8 mph - N/A   Overcast
1:51 AM 73.9 °F - 66.9 °F 79% 29.81 in 10.0 mi South 9.2 mph 18.4 mph N/A   Overcast
2:51 AM 73.9 °F - 66.9 °F 79% 29.85 in 10.0 mi Calm Calm - N/A   Overcast
3:41 AM 71.1 °F - 69.1 °F 93% 29.87 in 2.0 mi SE 4.6 mph - 0.03 in Rain Rain
3:51 AM 71.1 °F - 69.1 °F 93% 29.84 in 3.0 mi SE 4.6 mph - 0.04 in Rain Light Rain
4:51 AM 70.0 °F - 68.0 °F 93% 29.83 in 4.0 mi SSE 8.1 mph 17.3 mph 0.01 in   Overcast
5:34 AM 70.0 °F - 68.0 °F 93% 29.85 in 4.0 mi SE 11.5 mph 18.4 mph N/A   Overcast
5:51 AM 70.0 °F - 68.0 °F 93% 29.82 in 5.0 mi SSE 8.1 mph 23.0 mph N/A   Overcast
6:27 AM 71.1 °F - 68.0 °F 90% 29.85 in 8.0 mi South 10.4 mph 17.3 mph N/A   Overcast
6:34 AM 71.1 °F - 68.0 °F 90% 29.85 in 8.0 mi SSE 8.1 mph - N/A   Overcast
6:51 AM 71.1 °F - 66.9 °F 87% 29.82 in 10.0 mi SSE 6.9 mph - N/A   Overcast
7:51 AM 72.0 °F - 66.9 °F 84% 29.82 in 10.0 mi SSE 11.5 mph 17.3 mph N/A   Overcast
8:51 AM 72.0 °F - 66.9 °F 84% 29.82 in 10.0 mi SSE 8.1 mph 21.9 mph N/A   Overcast
9:51 AM 73.0 °F - 66.9 °F 81% 29.82 in 10.0 mi South 9.2 mph - N/A   Overcast
10:51 AM 73.9 °F - 66.9 °F 79% 29.82 in 10.0 mi South 9.2 mph - N/A   Overcast
11:51 AM 75.9 °F - 68.0 °F 76% 29.81 in 10.0 mi Variable 6.9 mph - N/A   Overcast
12:51 PM 80.1 °F 82.9 °F 69.1 °F 69% 29.79 in 10.0 mi Variable 4.6 mph - N/A   Overcast
1:20 PM 84.2 °F 88.4 °F 69.8 °F 62% 29.81 in 10.0 mi SSW 9.2 mph - N/A   Mostly Cloudy
1:51 PM 84.9 °F 88.8 °F 69.1 °F 59% 29.77 in 10.0 mi Variable 6.9 mph 19.6 mph N/A   Mostly Cloudy
2:51 PM 90.0 °F 95.4 °F 70.0 °F 52% 29.74 in 10.0 mi South 8.1 mph - N/A   Mostly Cloudy
3:51 PM 93.0 °F 97.9 °F 69.1 °F 45% 29.73 in 10.0 mi SSW 9.2 mph - N/A   Partly Cloudy
4:51 PM 93.0 °F 97.4 °F 68.0 °F 44% 29.70 in 10.0 mi Variable 5.8 mph - N/A   Clear
5:51 PM 93.0 °F 96.4 °F 66.9 °F 42% 29.69 in 10.0 mi Variable 6.9 mph - N/A   Clear
6:51 PM 90.0 °F 95.4 °F 70.0 °F 52% 29.68 in 10.0 mi South 8.1 mph 18.4 mph N/A   Clear
7:51 PM 84.0 °F 89.0 °F 71.1 °F 65% 29.70 in 10.0 mi SE 9.2 mph 20.7 mph N/A   Clear
8:51 PM 81.0 °F 84.4 °F 70.0 °F 69% 29.73 in 10.0 mi SE 8.1 mph 19.6 mph N/A   Clear
9:51 PM 79.0 °F - 70.0 °F 74% 29.76 in 10.0 mi SSE 11.5 mph 18.4 mph N/A   Mostly Cloudy
10:51 PM 78.1 °F - 71.1 °F 79% 29.78 in 8.0 mi SSE 9.2 mph - N/A   Overcast
11:10 PM 78.1 °F - 71.1 °F 79% 29.81 in 8.0 mi SSE 6.9 mph - N/A   Overcast
11:51 PM 78.1 °F - 71.1 °F 79% 29.78 in 7.0 mi South 8.1 mph - N/A   Overcast